Regional Weather Roundup
Issued by NWS Charleston, WV

Home | Current Version | Previous Version | Text Only | Print | Product List | Glossary Off
Versions: 1 2 3 4 5 6 7 8 9 10 11 12 13 14 15 16 17 18 19 20 21 22 23 24 25 26 27 28 29 30 31 32 33 34 35 36 37 38 39 40 41 42 43 44 45 46 47 48 49 50

000
ASUS41 KRLX 040310
RWRRLX
West Virginia Regional Weather Roundup
National Weather Service Charleston WV
1000 PM EST TUE MAR 03 2015

Note: "fair" indicates few or no clouds below 12,000 feet with no
significant weather and/or obstructions to visibility.

WVZ003-040400-
Northern Panhandle of West Virginia

CITY           SKY/WX    TMP DP  RH WIND       PRES   REMARKS
WHEELING       LGT RAIN  48  46  93 W16G23    29.74S
$$

WVZ009-040400-
Northwest West Virginia

CITY           SKY/WX    TMP DP  RH WIND       PRES   REMARKS
PARKERSBURG    LGT RAIN  51  50  96 W10       29.82R FOG
$$

WVZ006-040400-
Western West Virginia

CITY           SKY/WX    TMP DP  RH WIND       PRES   REMARKS
HUNTINGTON     CLOUDY    60  55  83 SW8       29.81S
$$

WVZ015-040400-
West Central West Virginia

CITY           SKY/WX    TMP DP  RH WIND       PRES   REMARKS
CHARLESTON     CLOUDY    58  53  84 S13       29.83F
$$

WVZ022-031-040400-
North Central West Virginia

CITY           SKY/WX    TMP DP  RH WIND       PRES   REMARKS
CLARKSBURG     CLOUDY    58  52  80 SW18G31   29.76S
MORGANTOWN     LGT RAIN  53  50  89 CALM      29.76S FOG
$$

WVZ025-035-042-045-040400-
Southern West Virginia

CITY           SKY/WX    TMP DP  RH WIND       PRES   REMARKS
BECKLEY        CLOUDY    51  49  92 SW14      29.92S
LOGAN          CLOUDY    55  54  94 S8        29.85F
BLUEFIELD      LGT RAIN  53  49  86 SW8       29.97S FOG
LEWISBURG      CLOUDY    36  34  92 NE3       29.96S
$$

WVZ047-040400-
Northern Mountains of West Virginia

CITY           SKY/WX    TMP DP  RH WIND       PRES   REMARKS
ELKINS         CLOUDY    56  50  80 SW18G25   29.83F
$$

WVZ052-040400-
Eastern Panhandle of West Virginia

CITY           SKY/WX    TMP DP  RH WIND       PRES   REMARKS
MARTINSBURG    CLOUDY    38  26  62 SE8       29.85F
PETERSBURG     CLOUDY    48  38  67 S22G29    29.78F
$$


USA.gov is the U.S. government's official web portal to all federal, state and local government web resources and services.